Powrót do katalogu

COSMOS 1275 DEB

AktywnyPO
NORAD 27733·DEBRIS·🇷🇺 Russia

Wystrzelony Jun 4, 1981 z Plesetsk Cosmodrome

Loading…

Następne Przeloty (najbliższe 24 godziny)

TLE

ŚwieżeSource: Space-Track

Epoka: Sep 14, 2026, 00:34 UTC

1 27733U 81053MN  26257.02427163  .00001641  00000-0  72558-3 0  9998
2 27733  83.1086 113.4402 0029131  88.9631 271.4889 14.22458644380006

Śledź COSMOS 1275 DEB w czasie rzeczywistym z AllMySat

Download on the App Store